Regional Weather Roundup
Issued by NWS

Home | Current Version | Previous Version | Text Only | Print | Product List | Glossary On
Versions: 1 2 3 4 5 6 7 8 9 10 11 12 13 14 15 16 17 18 19 20 21 22 23 24 25
000
ASUS44 KBMX 291610
RWRAL

ALABAMA REGIONAL WEATHER ROUNDUP
NATIONAL WEATHER SERVICE BIRMINGHAM AL
1100 AM CDT THU JUN 29 2017

NOTE: "FAIR" INDICATES FEW OR NO CLOUDS BELOW 12,000 FEET
WITH NO SIGNIFICANT WEATHER AND/OR OBSTRUCTIONS TO VISIBILITY.

THE REMARK "TC" DENOTES TEMPERATURE IN DEGREES CELSIUS.

ALZ001>011-014-016>018-020-291700-
NORTH ALABAMA

CITY           SKY/WX    TMP DP  RH WIND       PRES   REMARKS
MUSCLE SHOALS  PTSUNNY   80  71  74 S6        30.09S
HUNTSVILLE     CLOUDY    82  72  71 S13       30.09F
DECATUR        CLOUDY    84  71  65 S12       30.09F
HALEYVILLE     NOT AVBL
GADSDEN        CLOUDY    80  74  81 SE7       30.12S
$$

ALZ012-013-022-023-030>036-040>044-291700-
WEST CENTRAL ALABAMA

CITY           SKY/WX    TMP DP  RH WIND       PRES   REMARKS
TUSCALOOSA     CLOUDY    77  76  96 S8        30.07F
$$

ALZ015-024>027-033>036-040>044-291700-
CENTRAL ALABAMA

CITY           SKY/WX    TMP DP  RH WIND       PRES   REMARKS
BIRMINGHAM     CLOUDY    78  72  81 S8        30.12F
MONTGOMERY     PTSUNNY   80  72  76 SE7       30.10F
SHELBY CO ARPT PTSUNNY   80  75  84 SE10      30.10F
MAXWELL AFB    PTSUNNY   78  75  88 SE8       30.11S
GREENVILLE     LGT RAIN  78  72  81 S5        30.11R
$$

ALZ019-021-028-029-037-038-045>048-291700-
EAST CENTRAL ALABAMA

CITY           SKY/WX    TMP DP  RH WIND       PRES   REMARKS
ANNISTON       HVY RAIN  75  72  90 SE10G21   30.13S FOG
ALEXANDER CITY CLOUDY    77  73  87 S6        30.13F
AUBURN         CLOUDY    75  73  93 SE8       30.15S
$$

ALZ051>064-291700-
SOUTHWEST ALABAMA

CITY           SKY/WX    TMP DP  RH WIND       PRES   REMARKS
MOBILE         LGT RAIN  76  73  91 NW3       30.09R FOG
BROOKLEY FIELD RAIN      78  76  93 NE5       30.09R FOG
EVERGREEN      LGT RAIN  76  72  87 S8        30.11S
$$

ALZ049-050-065>069-291700-
SOUTHEAST ALABAMA

CITY           SKY/WX    TMP DP  RH WIND       PRES   REMARKS
DOTHAN         CLOUDY    80  76  87 S6        30.14S
OZARK          CLOUDY    81  75  83 S5        30.11R
TROY           CLOUDY    79  75  87 S5        30.12S
EUFAULA        PTSUNNY   84  75  74 SE5       30.10S HX  92
$$




USA.gov is the U.S. government's official web portal to all federal, state and local government web resources and services.